This demonstration page uses our WeatherBlox Daily Observations layout. Learn more.

Left ArrowRight Arrow

39.01783, -85.05884

Hourly Observations for October 20, 2021

Temp ( °F °C ) Dew Point ( °F °C ) Humidity (%) Winds ( mph kmh ) Pressure ( in mb ) Visibility ( mi km ) Precip ( " mm )
12:52 am 00:52 Clear 50 10 44 6.7 80 80 S 6 9 30.15 1021 10 16 N/A
1:52 am 01:52 Clear 48 8.9 44 6.7 86 86 SSW 7 11 30.16 1021 10 16 N/A
2:52 am 02:52 Clear 51 10.6 44 6.7 77 77 SSW 7 11 30.17 1022 10 16 N/A
3:52 am 03:52 Clear 50 10 44 6.7 80 80 N N/A 30.16 1022 10 16 N/A
4:52 am 04:52 Clear 50 10 45 7.2 83 83 N N/A 30.17 1022 10 16 N/A
5:52 am 05:52 Clear 49 9.4 45 7.2 86 86 N N/A 30.18 1022 10 16 N/A
6:52 am 06:52 Clear 49 9.4 44 6.7 83 83 N N/A 30.19 1022 10 16 N/A
7:52 am 07:52 Clear 48 8.9 44 6.7 86 86 N N/A 30.19 1023 10 16 N/A
8:52 am 08:52 Mostly Sunny 50 10 46 7.8 86 86 S 7 11 30.21 1023 10 16 N/A
9:52 am 09:52 Sunny 56 13.3 49 9.4 77 77 S 7 11 30.22 1023 10 16 N/A
10:52 am 10:52 Sunny 60 15.6 50 10 70 70 S 8 13 30.21 1023 10 16 N/A
11:52 am 11:52 Sunny 63 17.2 50 10 63 63 WSW 9 15 30.20 1023 10 16 N/A
12:52 pm 12:52 Sunny 67 19.4 51 10.6 57 57 SW 10 17 30.19 1022 10 16 N/A
1:52 pm 13:52 Sunny 69 20.6 51 10.6 53 53 SW 8 13 30.15 1021 10 16 N/A
2:52 pm 14:52 Sunny 70 21.1 51 10.6 51 51 SSW 12 19 30.12 1020 10 16 N/A
3:52 pm 15:52 Sunny 71 21.7 48 8.9 44 44 SSW 10 17 30.10 1019 10 16 N/A
4:52 pm 16:52 Sunny 71 21.7 48 8.9 44 44 SSW 10 17 30.10 1019 10 16 N/A
5:52 pm 17:52 Mostly Sunny 69 20.6 48 8.9 47 47 SSW 8 13 30.08 1019 10 16 N/A
6:52 pm 18:52 Mostly Sunny 65 18.3 48 8.9 54 54 SSW 8 13 30.08 1019 10 16 N/A
7:52 pm 19:52 Mostly Clear 61 16.1 48 8.9 63 63 S 6 9 30.07 1018 10 16 N/A
8:52 pm 20:52 Mostly Cloudy 60 15.6 49 9.4 67 67 SSW 7 11 30.06 1018 10 16 N/A
9:52 pm 21:52 Cloudy 59 15 48 8.9 67 67 S 6 9 30.04 1017 10 16 N/A
10:52 pm 22:52 Mostly Clear 57 13.9 49 9.4 74 74 S 7 11 30.05 1018 10 16 N/A
11:52 pm 23:52 Partly Cloudy 56 13.3 49 9.4 77 77 S 8 13 30.05 1018 10 16 N/A

Powered by AerisWeather